Flag for India Weather past 2 weeks in Nagaur, Rajasthan, India

Now
99 °F

Haze.


Feels Like: 100 °F
Forecast: 84 / 100 °F
Wind: 7 mph from Southwest

Location: Jaipur / Sanganer

Current Time: Aug 23, 2014 at 5:01:46 PM

Latest Report: Aug 23, 2014 at 4:00 PM


Visibility: 2 mi

Pressure: 29.71 "Hg

Humidity: 31%

Dew point: 63 °F

Location of NagaurLocation

Historic Weather in Nagaur — Graph

°F

Nagaur temperature yesterday

Maximum temperature yesterday: 97 °F (at 3:00 PM)
Minimum temperature yesterday: 81 °F (at 3:00 AM)
Average temperature yesterday: 88 °F

Past Weeks' High & Low Weather Summary

 TemperatureHumidityPressure
High99 °F (Aug 23, 3:00 PM)100% (Aug 9, 2:00 AM)30.01 "Hg (Aug 9, 2:00 AM)
Low77 °F (Aug 9, 4:00 AM)31% (Aug 23, 3:00 PM)29.53 "Hg (Aug 8, 4:00 PM)
Average84 °F73%29.69 "Hg
* Reported Aug 8 4:00 PM — Aug 23 3:00 PM, Nagaur, Weather by CustomWeather, © 2014

Note: Actual official high and low records may vary slightly from our data, if they occured in-between our weather recording intervals... More about our weather records

Advertising

Nagaur weather history for previous 24 hours

 ConditionsComfort  
Time TempWeatherWind HumidityBarometerVisibility
3:00 PM
Aug 23
99 °FHaze.7 mph31%29.74 "Hg2 mi
2:00 PM97 °FHaze.7 mph34%29.77 "Hg2 mi
1:00 PM97 °FScattered clouds.5 mph37%29.77 "Hg2 mi
11:00 AM93 °FHaze.5 mph41%29.80 "Hg2 mi
10:00 AM91 °FHaze.5 mph44%29.80 "Hg2 mi
9:00 AM90 °FHaze.7 mph52%29.80 "Hg2 mi
7:00 AM84 °FHaze.5 mph62%29.77 "Hg2 mi
6:00 AM82 °FHaze.3 mph66%29.77 "Hg2 mi
5:00 AM82 °FPassing clouds.5 mph66%29.74 "Hg2 mi
4:00 AM84 °FPassing clouds.5 mph58%29.74 "Hg2 mi
3:00 AM84 °FPassing clouds.5 mph62%29.74 "Hg2 mi
2:00 AM86 °FPassing clouds.5 mph59%29.74 "Hg2 mi
1:00 AM86 °FPassing clouds.5 mph55%29.74 "Hg2 mi
12:00 AM88 °FPassing clouds.5 mph52%29.74 "Hg2 mi
11:00 PM
Aug 22
88 °FPassing clouds.5 mph49%29.74 "Hg2 mi
10:00 PM90 °FPassing clouds.5 mph46%29.74 "Hg2 mi
9:00 PM90 °FPassing clouds.5 mph46%29.74 "Hg2 mi
7:00 PM91 °FScattered clouds.5 mph44%29.68 "Hg2 mi
6:00 PM93 °FScattered clouds.6 mph44%29.65 "Hg2 mi
5:00 PM97 °FScattered clouds.7 mph34%29.65 "Hg2 mi
Weather by CustomWeather, © 2014

See weather overviewHow to use our weather pages